Vorticity
7 8 8 8 8 8 7 9 8 7 8 6 9 11 13 13 13 22 19 21 21 5 2 11 15 -9 -18 -4 -1 -1 5 12 -2 -9 2 7 7 5 6 5 7 3 1 6 4 3 1 -1 -3 -1 3 6 7 6 7 6 5 4 5 5 5 4 4 5 3 3 3 6 6 7 8 6 7 5 11 13 8 8 7 4 3 2 2 3 4 5 7 8 8 7 7 7 7 7 7 7 7
7 9 8 8 7 7 7 8 8 9 10 7 14 16 21 29 29 27 5 0 12 10 9 1 7 8 -14 -13 7 6 -5 -1 0 2 4 5 7 6 7 2 2 2 -2 -1 -3 -2 -2 -1 1 4 6 7 7 6 6 5 5 5 6 5 5 5 4 4 3 3 4 6 6 6 7 6 7 6 11 14 8 7 8 6 3 2 2 3 4 5 7 8 8 7 7 8 7 7 7 7 7
7 8 7 8 7 8 8 7 8 8 9 11 17 11 12 21 17 13 1 -6 -0 5 11 4 -0 1 -11 -17 -2 4 -5 2 14 19 13 7 8 5 4 3 3 2 0 -1 -2 0 2 5 5 5 6 6 6 5 5 5 6 5 5 5 5 5 4 4 3 3 5 7 7 7 7 7 7 6 9 12 9 6 7 7 5 3 3 4 4 5 6 7 7 7 8 8 8 7 8 7 7
8 8 7 8 8 8 7 8 10 6 10 13 10 7 4 -0 -7 1 13 11 6 3 2 7 8 0 -3 -4 -2 6 6 6 12 15 16 14 11 8 7 8 6 2 2 2 2 6 6 5 4 6 7 6 6 5 5 5 5 5 5 5 5 5 4 3 3 4 6 8 7 8 7 7 7 5 7 11 9 6 6 8 8 5 3 4 4 5 6 6 7 8 8 8 8 8 8 7 7
6 6 7 8 8 7 7 9 9 7 9 9 9 14 3 -14 -13 0 10 12 9 3 -2 1 7 6 2 3 4 5 4 5 8 9 13 16 15 11 8 9 6 5 6 5 7 7 4 4 6 7 6 5 6 5 5 6 5 6 5 4 5 4 4 3 5 7 7 9 8 8 8 8 7 5 5 7 8 8 8 8 8 6 4 4 5 5 6 7 7 8 8 7 7 8 8 7 7
5 6 6 7 7 6 8 9 8 9 7 10 20 24 14 3 2 4 3 5 6 1 2 2 -3 5 3 -2 5 6 10 13 8 8 8 8 9 10 10 10 7 8 8 6 5 3 4 6 8 7 6 7 6 6 5 5 5 5 5 5 6 5 5 5 6 8 7 8 8 8 8 9 7 4 4 4 4 5 6 9 9 7 5 4 5 6 6 7 7 7 7 8 7 8 8 7 7
8 7 7 7 6 6 9 9 9 10 8 18 24 22 25 20 9 7 5 3 9 5 5 5 -6 5 8 2 11 10 13 13 7 7 5 2 4 9 12 10 8 7 3 2 4 5 8 7 7 7 6 7 5 6 5 5 6 5 6 6 6 6 6 7 7 8 8 8 8 8 8 9 8 3 3 3 3 4 3 5 9 9 6 5 5 5 5 5 5 6 6 8 8 7 8 7 7
8 8 8 7 6 7 8 8 9 8 8 22 18 5 5 3 7 12 8 2 6 3 3 4 -10 -0 9 7 17 15 11 12 12 9 3 3 4 7 7 5 4 2 1 4 8 7 8 8 7 7 5 5 5 6 6 6 6 6 7 7 7 7 7 7 7 8 8 8 8 8 8 8 8 5 4 3 3 5 1 -1 7 10 8 6 5 6 6 5 5 6 7 8 7 7 7 7 6
8 8 9 8 7 6 7 8 10 8 8 25 22 7 -1 -9 5 15 3 1 4 -0 3 -1 -13 0 7 2 16 24 20 14 11 7 5 5 4 6 3 3 4 3 6 8 8 7 8 8 6 5 5 6 7 6 7 7 7 8 7 6 6 7 8 8 8 9 9 9 8 8 7 6 5 4 4 3 3 6 3 -1 3 5 6 7 7 8 7 6 6 6 8 7 7 7 7 7 6
8 8 7 6 8 8 12 12 12 12 8 28 26 1 -1 -5 -2 9 2 1 2 -1 2 -1 -7 5 1 -7 8 21 19 11 7 6 7 7 7 9 8 7 7 7 8 6 5 8 7 7 5 5 6 6 7 6 6 6 7 8 6 6 7 8 9 8 10 11 10 9 8 7 5 2 1 2 3 4 5 9 5 -1 0 1 3 8 8 8 7 6 6 5 6 7 7 8 8 8 6
8 8 7 6 9 9 12 8 10 16 12 34 35 -3 -2 11 2 4 3 -0 1 -2 -0 2 2 4 2 2 10 14 13 11 8 7 6 6 7 8 8 6 6 7 6 6 7 8 6 5 6 6 6 6 6 5 5 7 8 6 6 8 10 11 9 9 12 12 13 13 10 8 6 4 3 4 6 7 8 9 4 -1 1 2 6 9 8 9 8 5 4 5 5 6 7 7 7 7 6
9 8 8 8 8 8 9 9 9 14 12 15 23 14 8 12 5 3 1 1 9 6 4 8 8 7 8 12 13 12 12 10 6 7 7 6 10 8 5 5 4 5 4 8 9 6 6 5 7 7 6 5 5 6 5 7 8 9 12 11 10 9 7 8 11 10 12 14 13 10 11 12 10 9 7 6 4 3 3 1 0 2 6 10 11 12 10 6 4 6 7 8 9 7 6 5 5
9 9 9 9 8 7 7 9 9 11 10 -13 -10 15 9 1 3 6 3 3 11 8 13 12 5 8 6 13 17 11 6 6 6 6 8 6 10 10 5 5 2 4 8 10 7 5 6 6 8 7 6 5 6 7 5 7 7 10 14 10 8 7 6 10 12 11 8 9 11 15 19 16 10 7 4 3 1 0 2 1 1 2 4 10 16 16 11 7 6 7 8 9 7 6 6 5 5
9 9 7 8 7 8 7 9 17 16 11 -10 -8 16 10 5 2 -1 1 -2 6 10 30 28 8 11 8 12 18 10 4 3 7 7 6 6 9 12 8 4 2 6 8 6 5 6 8 8 7 5 6 6 9 9 8 10 6 7 12 11 11 8 11 16 13 10 11 9 5 7 15 13 6 4 4 7 5 1 2 2 4 5 6 11 17 16 10 7 7 7 8 7 5 6 7 6 5
8 9 6 8 6 8 10 11 18 6 1 -4 -3 15 8 7 2 -2 3 -2 7 10 21 28 13 8 6 13 11 4 8 4 6 5 4 9 11 10 5 4 4 7 8 6 8 8 8 8 6 8 9 11 14 13 10 9 7 10 10 6 3 4 12 12 6 9 18 21 7 -2 4 7 7 8 8 10 6 3 10 14 11 8 9 15 16 13 9 7 8 6 7 7 6 6 7 8 6
8 9 7 8 6 8 14 16 22 2 3 10 -3 8 3 3 9 -1 1 -2 3 0 -1 12 8 4 12 28 23 8 8 5 5 4 5 10 9 4 1 5 6 7 9 9 10 8 7 7 8 10 5 8 12 4 1 3 7 11 10 7 10 17 11 -0 4 15 21 18 9 4 3 3 7 9 6 10 9 6 13 18 15 10 13 18 13 8 6 6 6 5 7 8 7 6 7 8 6
7 9 6 8 8 10 20 24 30 -5 -10 22 7 4 0 2 13 -1 6 13 6 1 5 11 2 6 19 22 21 16 9 6 9 9 10 8 4 2 2 7 8 10 8 5 8 6 6 5 6 7 3 4 6 1 6 13 10 9 14 17 18 16 2 -3 11 14 8 5 9 10 2 2 11 8 6 13 10 7 16 20 16 14 16 14 8 5 5 4 4 6 7 7 6 6 7 8 6
6 11 6 10 10 14 30 20 14 -14 -19 24 14 -2 1 3 12 3 5 14 10 8 12 14 4 7 15 8 9 14 8 7 9 8 8 5 4 4 4 5 2 5 6 2 5 3 6 6 3 4 3 5 7 4 8 15 11 6 7 2 -5 -6 -5 5 12 3 -1 6 13 10 1 6 9 1 8 13 6 11 26 23 12 15 15 7 2 4 5 3 5 6 7 7 7 6 6 8 7
6 11 7 11 13 19 35 8 -14 -10 -3 20 12 -3 1 3 12 7 -5 -3 6 13 19 18 9 6 8 10 9 7 5 5 6 5 5 5 5 3 5 5 -2 2 4 2 5 4 5 5 4 5 3 3 5 4 4 9 8 5 5 3 2 5 10 12 7 1 3 9 11 6 4 7 -1 2 15 10 4 15 21 14 10 13 12 3 1 5 5 4 3 5 7 6 6 6 6 8 7
6 8 8 11 18 24 27 5 -16 -8 5 13 9 -3 -4 -1 5 7 -0 1 7 13 26 20 5 4 3 3 5 7 8 6 5 5 7 6 3 1 4 7 5 5 3 3 7 5 4 4 5 6 6 7 7 6 5 4 4 7 10 10 9 8 10 7 1 1 6 14 14 8 6 6 5 14 17 4 2 11 14 15 10 4 3 5 9 12 11 9 7 6 5 4 5 6 7 8 8
8 6 9 10 18 27 9 3 1 -11 0 16 11 -3 -2 7 6 11 12 13 15 8 15 17 8 8 7 2 3 7 7 7 6 4 7 5 1 2 4 6 5 4 4 7 7 4 5 5 5 4 4 9 11 11 10 9 9 10 6 2 3 6 8 6 6 7 11 14 9 5 6 12 18 15 12 12 12 15 18 15 2 -0 7 10 12 14 17 18 17 15 11 9 8 8 8 7 8
10 5 10 8 14 30 -3 -13 1 -16 -5 16 12 1 2 7 -1 3 13 21 27 10 2 9 11 9 10 10 7 6 5 6 5 3 6 3 3 4 5 9 6 6 7 7 6 4 4 4 6 4 3 7 10 11 12 11 6 1 -1 1 6 10 11 10 11 12 11 5 1 10 16 18 19 12 14 22 22 19 12 2 -1 6 9 7 10 12 13 15 16 17 15 15 15 12 10 8 8
10 6 10 7 13 32 0 -19 -4 -10 -5 7 11 7 -0 3 1 -4 -4 5 13 9 4 3 7 9 9 12 11 8 8 8 6 8 9 3 4 5 7 9 6 8 7 6 6 4 4 4 4 3 5 7 7 9 11 9 5 3 5 8 8 8 11 11 12 11 8 9 16 22 17 9 6 4 5 8 13 14 4 2 8 9 6 6 10 8 6 11 14 14 14 16 17 14 10 10 9
8 7 10 10 13 27 7 -14 -8 -6 -2 3 8 11 3 -3 3 3 -8 -3 9 13 10 0 5 15 15 14 12 13 11 9 9 11 8 3 6 9 11 7 3 7 6 5 4 3 5 4 3 3 5 7 7 9 8 7 8 9 11 12 11 12 15 15 15 13 11 16 16 9 4 3 1 -0 2 6 12 11 5 11 14 10 8 7 8 7 7 11 10 10 13 11 8 10 13 14 14
8 7 9 11 13 21 10 -11 -13 -9 -3 2 1 12 24 9 2 6 -4 -2 13 16 13 6 2 10 20 18 13 17 14 9 10 10 6 6 8 7 4 2 4 7 5 4 4 6 7 5 5 5 5 7 9 9 6 8 10 11 12 13 14 15 15 14 14 11 11 15 7 0 5 6 2 2 6 12 13 7 7 13 12 9 8 8 9 8 9 9 4 5 10 5 3 16 19 13 14
8 6 8 11 12 18 9 -8 -8 -5 -2 8 8 12 28 24 13 16 14 8 9 12 16 15 3 1 14 14 10 10 6 5 9 11 8 2 4 11 8 1 5 7 6 7 5 7 7 7 8 7 10 10 10 7 5 12 14 13 14 13 11 12 11 11 12 8 8 11 6 4 7 7 7 10 10 9 7 6 9 11 10 9 9 10 8 7 10 11 10 9 10 7 6 11 10 7 11
7 6 7 8 10 15 12 1 -5 -9 -5 12 20 17 14 15 13 13 22 18 7 8 13 13 7 3 2 -0 2 3 1 4 9 10 4 -1 7 23 19 5 7 8 6 6 5 7 7 8 8 8 12 10 10 11 10 14 10 8 12 10 7 8 11 13 12 8 4 5 6 8 9 11 13 14 12 7 6 6 7 8 10 9 8 9 7 9 11 10 11 11 12 12 9 6 6 10 14
6 6 8 8 7 9 11 9 1 -10 -11 -7 -1 8 8 10 12 6 10 11 6 8 10 11 10 7 -0 -6 1 6 4 5 12 9 5 15 18 11 5 3 9 9 5 5 5 6 6 8 10 9 10 9 11 12 13 14 9 10 11 8 8 12 17 18 15 10 6 5 6 8 7 10 10 8 9 9 10 8 6 8 11 10 9 9 7 9 10 9 9 9 12 14 13 14 11 11 12
6 7 8 9 9 6 5 5 7 1 -5 -8 -8 3 10 9 10 7 5 6 9 11 10 11 8 7 5 1 3 5 2 -0 5 7 11 27 17 1 6 7 6 7 6 5 4 5 7 8 9 10 12 9 8 8 8 7 8 12 11 10 12 12 11 10 10 9 9 9 7 6 6 9 11 9 9 11 11 9 8 9 10 11 9 9 8 10 11 10 10 10 13 16 17 18 14 15 10
6 8 7 8 11 9 7 7 8 6 2 2 2 8 11 9 10 12 11 8 8 8 3 2 4 8 7 6 4 -2 -1 -0 1 3 4 8 -2 -4 7 6 6 8 7 6 5 5 6 6 7 11 11 4 3 9 10 9 10 12 10 11 11 6 2 1 5 9 9 8 7 6 7 10 10 9 10 11 9 7 10 10 10 11 10 9 10 11 12 10 12 11 10 12 13 11 13 14 4
6 9 7 7 13 10 9 13 12 8 4 3 8 11 8 10 11 10 14 10 6 9 6 2 6 9 7 7 5 0 3 4 3 4 -1 -3 -4 -6 -6 -3 9 9 5 7 5 4 4 5 8 10 8 6 8 11 11 12 12 11 9 7 6 3 1 3 8 10 6 4 7 7 7 8 8 8 8 8 8 8 10 10 9 10 8 7 8 7 9 11 10 10 9 8 9 7 8 10 8
8 8 7 8 10 6 6 13 12 8 6 5 8 8 6 10 9 9 16 10 6 14 13 11 13 11 10 11 8 7 8 5 3 6 4 2 3 5 2 4 10 9 7 7 5 5 4 3 7 7 5 7 10 9 9 11 11 11 9 5 4 2 4 10 12 9 6 6 8 8 6 7 8 7 7 7 8 9 9 7 8 8 6 7 8 7 8 14 15 14 12 9 12 16 11 11 16
9 9 9 10 8 5 7 11 10 8 7 8 8 6 7 7 5 10 14 9 9 11 5 7 13 11 11 11 10 11 6 3 5 5 7 6 9 15 13 13 11 6 6 4 1 2 3 5 7 8 9 9 10 11 12 10 11 12 9 5 2 4 9 11 10 7 8 8 8 8 8 7 7 7 7 7 8 8 8 7 7 8 8 8 8 6 6 11 16 13 9 9 13 13 5 4 10
8 8 8 9 10 11 12 11 10 11 9 8 10 8 7 5 7 14 16 17 16 6 -0 10 12 6 8 7 7 11 3 2 5 4 5 6 12 12 6 7 3 -1 5 6 7 11 14 12 5 5 9 9 6 6 7 6 9 12 9 7 4 7 11 8 7 7 6 6 6 7 7 8 8 6 6 7 7 7 7 7 8 8 9 9 7 6 6 8 11 9 8 10 10 4 2 6 9
7 10 12 11 12 14 15 14 15 20 16 11 15 14 13 12 9 10 14 15 8 -5 -3 15 16 3 5 8 6 8 4 4 5 4 6 4 8 10 7 8 -1 -2 9 10 11 13 15 12 9 11 8 15 19 7 4 4 6 11 9 8 8 9 9 7 8 7 5 8 10 8 7 9 8 6 5 5 6 7 8 8 7 6 7 7 7 7 8 7 9 12 10 8 8 7 8 10 9
9 10 10 10 12 13 14 18 22 25 17 10 15 16 18 28 27 17 12 5 -2 -3 -3 4 15 11 9 10 6 6 6 7 5 2 6 4 5 9 9 9 3 7 12 9 6 3 4 2 6 10 1 21 32 8 4 6 3 10 9 10 11 8 7 8 9 6 8 12 11 10 8 8 8 7 7 6 6 6 8 9 7 6 6 6 7 6 8 7 7 11 11 8 8 8 8 9 10
10 7 7 6 7 4 3 20 31 24 11 2 4 1 -1 19 38 28 10 2 1 10 8 -4 4 10 10 14 10 7 6 3 1 2 7 7 7 7 6 5 5 8 8 6 6 5 4 -3 2 7 -2 17 18 -8 1 8 4 10 8 8 10 8 8 7 5 4 9 10 8 9 7 7 7 6 6 6 6 6 6 9 10 10 8 8 8 7 8 7 7 8 9 11 9 8 8 10 11
9 7 7 2 9 6 5 31 27 3 5 2 -1 -1 -8 2 29 28 4 1 10 20 23 11 9 12 13 20 17 13 13 3 -1 6 9 6 5 3 5 7 7 7 7 3 1 6 8 1 7 7 4 25 16 -5 7 6 4 12 8 6 7 9 10 6 5 8 9 8 6 8 7 6 7 6 7 6 7 7 6 7 9 10 9 9 10 10 9 7 8 8 8 11 10 8 9 11 10
11 10 9 7 21 13 13 41 8 -28 0 14 7 9 -0 -5 18 26 -1 -6 8 12 14 6 -2 0 2 11 13 10 11 1 -1 8 8 5 6 6 6 8 7 6 6 5 4 10 8 6 12 11 21 34 7 -7 8 2 4 11 6 6 5 6 10 8 10 10 7 6 5 7 7 8 9 8 9 7 7 8 9 9 8 9 10 11 12 12 10 8 7 8 7 9 8 8 10 10 10
9 9 10 16 29 9 7 32 -5 -31 5 19 12 10 9 12 28 35 2 -15 -1 1 -0 -6 -13 -6 -1 3 2 -1 1 -4 -1 7 4 4 6 7 6 6 8 5 7 18 21 18 9 7 9 9 23 18 -15 -11 7 2 7 9 4 7 4 5 9 9 10 7 5 5 6 9 9 9 7 6 8 8 9 8 8 10 9 9 9 10 12 11 10 9 7 6 6 7 7 7 8 7 9
8 8 12 17 26 8 -2 12 -1 3 26 23 11 -2 -6 4 22 40 14 -15 -4 -0 -4 -4 -3 5 7 2 -8 -8 1 -1 3 9 5 7 9 7 5 6 9 6 7 10 7 5 4 5 3 3 21 18 -3 5 9 2 10 8 6 7 2 5 7 8 8 4 4 4 7 11 10 8 6 6 8 8 11 11 9 9 8 9 8 8 9 9 10 10 9 8 8 9 8 6 6 6 7
11 15 21 23 30 16 -5 -2 0 12 25 20 16 9 -0 -7 1 29 23 -1 1 3 -1 -1 -0 3 10 13 3 1 7 5 7 7 5 9 10 9 7 8 11 7 5 -2 -9 2 5 1 3 10 26 20 4 10 10 7 11 8 8 8 5 7 5 5 6 2 3 5 8 10 8 8 7 8 10 9 9 10 10 9 9 10 8 7 7 7 8 9 9 9 9 10 9 8 8 8 6
14 16 20 25 27 8 -6 3 -2 -9 3 9 7 4 3 -0 -2 5 11 12 10 3 -0 0 -3 -0 13 14 2 3 4 3 7 4 8 12 8 14 13 9 12 7 8 10 3 7 8 6 9 14 21 15 3 11 12 6 8 8 7 6 7 9 6 5 4 2 4 7 7 8 7 9 8 8 12 12 9 6 5 5 6 8 9 9 8 6 7 7 8 8 9 9 9 9 9 9 7
15 14 16 24 17 -8 -11 13 10 -10 -5 12 13 5 2 5 0 -10 -4 7 9 6 5 8 7 3 5 -6 -12 3 3 2 9 6 11 8 2 24 22 5 10 8 11 23 16 8 10 12 11 10 16 17 10 13 14 7 6 7 6 10 21 22 13 7 5 5 5 6 6 6 7 7 8 13 16 15 10 4 1 -0 0 3 6 8 9 9 9 7 6 5 6 6 8 9 9 9 8
16 15 16 26 18 -6 -10 7 16 4 -3 10 18 14 13 16 14 19 27 11 -1 8 6 6 11 5 0 -3 2 13 5 4 10 5 8 3 9 37 30 7 11 8 0 7 11 9 7 7 10 11 11 13 14 16 20 13 7 9 8 12 20 17 9 7 9 9 7 7 7 6 8 9 11 15 16 15 11 6 4 2 2 3 5 6 6 7 8 8 7 5 4 4 6 8 10 11 10
16 14 13 21 21 14 7 -2 -0 6 6 12 16 15 18 15 14 36 49 21 2 13 12 2 3 2 3 7 11 11 6 10 8 4 9 6 12 22 6 -7 5 18 14 1 -0 5 4 8 12 10 7 10 17 16 17 17 12 11 10 7 4 3 10 15 13 11 9 9 8 8 10 11 14 15 13 11 9 8 8 7 5 4 6 7 5 5 5 5 6 6 5 4 4 7 10 10 9
12 13 12 19 25 26 19 -6 -17 -3 6 7 10 21 24 14 14 23 20 8 5 10 13 10 5 10 19 15 11 9 8 10 5 7 11 6 12 13 2 -4 -0 17 16 -6 1 19 25 26 11 7 20 22 17 14 19 25 16 9 12 9 -1 -0 15 22 16 12 10 10 9 8 10 12 12 9 6 6 6 8 8 6 5 4 4 6 6 6 6 6 6 6 6 4 4 5 8 10 8
12 15 14 21 26 22 16 4 -5 -5 -4 -3 -0 10 13 10 21 21 -1 -2 13 7 1 4 -1 3 13 9 6 7 9 12 11 14 12 10 23 25 19 12 3 11 9 5 34 43 29 28 12 11 30 23 8 6 12 19 19 19 19 7 -5 0 13 18 16 13 10 9 9 8 11 14 12 6 3 5 6 7 7 6 6 5 5 6 8 8 8 8 8 7 6 4 5 8 10 11 9
11 13 11 12 10 7 9 13 13 1 -12 -15 -11 -0 8 6 11 18 7 -2 10 12 2 3 3 -1 3 5 8 14 16 17 14 13 13 15 22 17 12 10 7 12 2 -4 17 7 -14 3 13 15 21 10 2 4 4 8 14 16 9 -2 -2 6 8 8 12 13 10 9 9 8 11 12 10 8 6 7 7 7 8 8 8 8 9 9 11 12 11 9 6 4 4 4 7 10 11 12 11
9 8 11 9 3 2 3 6 17 20 7 -8 -9 4 13 11 5 12 17 1 -3 11 11 10 15 11 9 10 9 11 13 12 10 12 14 13 11 9 10 12 10 11 3 -4 4 -1 -8 3 7 7 10 6 7 9 5 8 13 12 6 4 6 5 4 6 10 12 10 9 8 8 7 6 7 8 7 7 9 11 12 13 13 11 10 9 10 12 13 12 10 7 8 9 11 12 11 11 12
11 10 15 15 4 -2 3 8 13 20 20 11 9 15 12 8 7 5 10 5 -2 3 5 7 10 5 8 17 13 7 8 8 9 12 11 10 14 15 14 15 10 8 16 17 14 15 20 17 5 2 5 2 5 7 2 6 15 14 9 6 4 4 8 9 7 8 10 10 9 7 3 4 6 6 8 10 11 13 14 15 14 11 8 9 9 11 13 14 14 12 12 12 11 10 9 9 9
4 8 19 23 9 -2 5 14 7 5 17 17 11 11 7 4 7 6 6 10 9 4 1 3 2 -5 1 16 18 11 9 10 12 12 9 10 14 12 12 16 10 5 12 12 5 11 24 22 10 6 9 8 8 8 5 7 11 11 9 4 0 7 15 15 12 9 7 8 8 5 2 3 5 5 9 11 7 6 10 10 10 9 9 11 12 13 13 11 11 11 10 9 9 8 9 9 8
1 4 15 25 18 4 6 14 11 6 11 15 9 5 5 3 4 8 8 9 10 7 6 6 5 2 0 6 14 13 9 12 15 15 17 18 14 10 13 13 7 7 10 8 7 6 7 11 10 7 7 9 10 8 5 4 3 8 14 9 2 5 6 7 13 15 10 8 6 5 2 1 3 4 7 10 4 1 5 7 7 7 8 9 11 11 11 10 9 10 11 11 11 10 10 10 10
8 5 8 19 18 8 3 7 15 13 5 8 11 8 7 5 3 8 10 12 11 5 6 9 13 14 2 -6 1 5 4 10 14 13 14 16 12 8 6 2 5 7 2 5 13 9 4 8 11 10 6 6 9 6 2 7 9 6 8 11 11 7 -4 -7 5 17 19 12 5 8 10 5 5 5 6 9 6 1 3 6 5 5 6 7 9 9 9 9 9 10 11 11 10 10 9 8 7
7 4 5 11 7 5 6 4 7 12 10 8 8 9 11 7 5 8 8 13 15 9 6 7 10 12 8 4 5 -1 -3 7 14 11 7 6 7 7 1 2 13 14 3 2 4 8 15 10 1 6 7 6 9 2 -2 11 16 4 -2 6 10 5 -1 -1 3 12 23 21 6 3 8 7 6 7 6 7 7 3 3 6 5 4 5 5 6 7 7 7 7 7 7 7 7 8 7 6 6
9 1 7 13 5 1 5 6 6 8 10 9 7 9 13 10 8 8 6 10 16 16 14 13 11 10 9 11 11 6 5 11 11 7 8 9 8 6 3 6 9 7 3 -5 -21 -16 2 0 -2 6 5 4 12 7 2 8 12 10 12 16 18 13 4 5 9 8 16 24 14 -2 -6 -1 6 11 9 6 7 5 3 5 5 4 5 6 6 7 6 6 6 5 6 7 7 8 8 8 8
16 6 3 9 10 9 6 1 3 7 9 10 10 10 8 7 8 7 5 6 9 13 16 15 13 13 11 9 9 10 14 20 16 10 10 10 8 8 6 5 3 2 7 6 -5 -4 2 -1 3 10 7 5 8 8 6 5 9 19 18 8 14 24 13 7 15 12 6 17 21 6 -6 -5 3 11 13 10 9 8 5 5 6 4 6 7 7 8 7 6 6 5 7 9 10 10 10 10 9
8 9 4 2 2 9 17 12 1 2 5 6 13 17 9 4 7 8 8 5 4 8 8 4 4 9 12 12 12 13 13 15 13 7 4 2 8 16 7 -3 1 7 9 7 3 4 5 5 7 9 8 4 3 9 12 9 12 18 15 -1 -4 14 16 6 11 11 4 12 20 14 6 2 3 8 14 16 12 9 7 6 6 6 8 9 9 9 8 7 5 6 8 9 8 8 7 7 6
Height
5840 5840 5841 5841 5842 5843 5844 5845 5846 5847 5848 5850 5851 5850 5850 5852 5852 5854 5855 5855 5855 5855 5855 5854 5852 5851 5851 5854 5855 5857 5858 5860 5860 5861 5860 5859 5861 5861 5861 5861 5861 5861 5862 5862 5862 5862 5862 5863 5863 5863 5862 5861 5861 5860 5860 5859 5859 5858 5858 5857 5857 5856 5856 5856 5855 5854 5854 5853 5853 5852 5852 5852 5852 5852 5852 5852 5852 5852 5852 5853 5853 5853 5852 5852 5852 5852 5852 5851 5850 5850 5850 5849 5849 5849 5849 5849 5849
5837 5837 5838 5838 5839 5840 5841 5843 5843 5844 5847 5848 5848 5846 5847 5849 5850 5851 5850 5851 5851 5849 5850 5851 5852 5849 5847 5851 5853 5854 5856 5859 5859 5859 5859 5858 5859 5859 5860 5859 5859 5860 5860 5861 5860 5861 5861 5861 5861 5860 5860 5859 5859 5858 5858 5858 5857 5856 5856 5856 5855 5855 5854 5854 5853 5852 5852 5852 5851 5851 5851 5851 5851 5851 5851 5851 5851 5851 5851 5852 5852 5852 5852 5851 5851 5851 5850 5850 5849 5849 5849 5849 5848 5848 5848 5848 5848
5834 5834 5835 5836 5836 5837 5839 5840 5841 5842 5845 5846 5845 5843 5843 5846 5848 5848 5846 5846 5845 5844 5847 5848 5849 5846 5844 5848 5850 5852 5855 5857 5858 5858 5858 5857 5857 5857 5857 5856 5857 5858 5858 5859 5859 5859 5859 5859 5859 5858 5857 5857 5857 5856 5856 5856 5855 5855 5854 5854 5853 5853 5852 5852 5851 5851 5851 5850 5850 5849 5849 5849 5849 5849 5849 5849 5850 5850 5850 5851 5851 5851 5851 5850 5850 5850 5849 5849 5848 5848 5848 5848 5848 5848 5848 5848 5848
5830 5831 5832 5833 5834 5835 5836 5838 5838 5840 5843 5843 5841 5840 5839 5841 5843 5843 5841 5842 5840 5841 5844 5844 5846 5844 5843 5846 5847 5850 5853 5854 5855 5856 5856 5856 5855 5854 5854 5854 5855 5856 5856 5857 5857 5857 5857 5857 5856 5855 5855 5855 5855 5855 5854 5854 5853 5853 5852 5852 5852 5851 5851 5850 5849 5849 5849 5849 5849 5848 5848 5848 5848 5848 5848 5848 5848 5848 5849 5849 5849 5849 5849 5849 5849 5848 5848 5848 5848 5847 5847 5847 5847 5847 5847 5847 5847
5827 5828 5829 5830 5831 5832 5834 5835 5836 5838 5840 5839 5838 5837 5835 5837 5839 5839 5838 5839 5839 5839 5841 5839 5842 5844 5843 5846 5848 5849 5850 5851 5853 5854 5854 5854 5853 5852 5852 5853 5854 5854 5854 5855 5855 5855 5855 5854 5853 5853 5853 5853 5853 5852 5852 5852 5851 5851 5851 5851 5850 5849 5849 5848 5848 5848 5848 5848 5847 5847 5847 5847 5847 5847 5847 5847 5847 5847 5847 5847 5847 5847 5847 5847 5847 5847 5847 5847 5847 5847 5846 5846 5846 5846 5846 5846 5846
5824 5825 5826 5827 5828 5830 5831 5832 5834 5835 5836 5834 5835 5834 5832 5835 5837 5838 5837 5837 5838 5837 5838 5836 5838 5841 5841 5845 5847 5847 5847 5848 5850 5852 5851 5851 5850 5850 5851 5851 5851 5852 5852 5853 5853 5853 5852 5852 5851 5851 5851 5851 5850 5850 5850 5850 5850 5849 5849 5849 5848 5847 5847 5846 5846 5846 5846 5846 5846 5846 5846 5845 5845 5845 5845 5845 5846 5846 5846 5846 5846 5846 5846 5846 5846 5846 5846 5846 5846 5846 5845 5845 5845 5845 5845 5845 5846
5821 5822 5823 5824 5825 5827 5828 5830 5831 5832 5832 5832 5832 5831 5831 5833 5835 5836 5836 5837 5836 5836 5836 5833 5835 5838 5838 5843 5845 5844 5845 5847 5848 5849 5848 5848 5848 5849 5849 5849 5850 5850 5850 5851 5850 5850 5849 5849 5848 5848 5848 5848 5848 5848 5848 5848 5847 5847 5847 5846 5846 5845 5845 5844 5844 5844 5844 5844 5844 5844 5844 5844 5844 5844 5844 5844 5844 5845 5845 5844 5844 5844 5845 5845 5845 5845 5845 5845 5845 5844 5844 5844 5844 5844 5844 5844 5845
5818 5819 5820 5821 5822 5824 5826 5827 5829 5829 5829 5830 5828 5827 5828 5830 5833 5834 5834 5836 5836 5834 5833 5831 5833 5837 5837 5840 5842 5841 5843 5844 5845 5845 5845 5846 5846 5847 5847 5847 5848 5847 5848 5848 5848 5847 5846 5846 5846 5846 5846 5846 5846 5846 5845 5845 5845 5844 5844 5844 5844 5843 5843 5842 5842 5842 5842 5843 5843 5843 5842 5842 5842 5843 5842 5842 5842 5843 5843 5843 5843 5843 5843 5844 5844 5844 5844 5844 5843 5843 5843 5843 5843 5843 5843 5843 5844
5815 5816 5817 5818 5820 5821 5823 5824 5826 5827 5827 5828 5827 5825 5827 5828 5830 5832 5831 5832 5832 5832 5831 5829 5833 5837 5836 5837 5839 5839 5840 5842 5842 5841 5842 5843 5844 5845 5845 5846 5845 5845 5846 5845 5845 5844 5844 5843 5843 5843 5843 5844 5844 5843 5843 5843 5842 5842 5842 5842 5842 5841 5840 5840 5839 5840 5840 5841 5841 5841 5841 5841 5841 5841 5841 5840 5840 5841 5842 5842 5842 5841 5842 5842 5843 5843 5843 5842 5842 5842 5842 5842 5842 5842 5842 5842 5842
5812 5812 5814 5815 5817 5819 5821 5822 5823 5824 5824 5826 5826 5824 5827 5827 5827 5829 5829 5829 5830 5831 5829 5827 5832 5835 5834 5836 5837 5836 5838 5839 5839 5839 5840 5841 5842 5843 5844 5845 5843 5843 5843 5842 5842 5842 5841 5841 5841 5841 5841 5841 5841 5841 5840 5840 5840 5840 5840 5840 5839 5839 5838 5837 5837 5838 5838 5839 5839 5839 5839 5839 5839 5839 5839 5839 5839 5840 5841 5841 5840 5840 5840 5841 5841 5841 5841 5841 5841 5841 5841 5841 5841 5841 5841 5841 5841
5808 5809 5811 5812 5814 5817 5818 5819 5820 5821 5822 5824 5825 5824 5827 5826 5825 5826 5827 5827 5829 5830 5828 5826 5829 5830 5830 5833 5835 5835 5836 5836 5836 5837 5838 5839 5840 5841 5842 5843 5841 5840 5840 5839 5839 5839 5838 5838 5839 5839 5839 5839 5839 5838 5838 5838 5838 5838 5838 5838 5837 5836 5836 5836 5836 5837 5837 5837 5837 5837 5837 5837 5837 5837 5838 5838 5839 5840 5840 5839 5838 5838 5839 5839 5839 5840 5840 5840 5840 5840 5840 5840 5840 5840 5840 5840 5840
5804 5806 5808 5810 5812 5814 5815 5816 5817 5818 5819 5822 5824 5824 5825 5823 5822 5823 5823 5826 5828 5829 5827 5825 5826 5827 5828 5830 5833 5833 5832 5833 5834 5835 5836 5837 5838 5840 5840 5840 5838 5837 5837 5837 5837 5836 5836 5836 5837 5837 5837 5836 5836 5836 5835 5835 5836 5836 5836 5835 5835 5835 5835 5835 5835 5835 5835 5835 5835 5835 5836 5836 5836 5837 5837 5838 5838 5838 5838 5837 5837 5837 5837 5837 5838 5838 5838 5839 5839 5838 5839 5838 5838 5838 5838 5838 5838
5801 5802 5805 5806 5808 5810 5811 5813 5814 5815 5816 5818 5820 5822 5822 5820 5820 5820 5821 5824 5826 5825 5824 5823 5824 5825 5825 5828 5830 5830 5829 5830 5832 5833 5833 5835 5836 5838 5838 5837 5836 5835 5834 5834 5834 5834 5834 5835 5835 5835 5835 5835 5834 5834 5834 5834 5834 5834 5834 5834 5834 5834 5833 5833 5833 5833 5833 5833 5834 5834 5834 5835 5836 5836 5836 5835 5836 5836 5835 5835 5835 5836 5836 5836 5836 5836 5837 5837 5837 5837 5837 5837 5836 5837 5837 5836 5837
5797 5799 5801 5803 5805 5807 5808 5810 5811 5812 5813 5815 5817 5819 5820 5819 5818 5817 5817 5823 5823 5820 5820 5822 5822 5821 5822 5826 5827 5827 5827 5828 5829 5830 5831 5832 5834 5836 5835 5834 5832 5832 5832 5831 5831 5832 5833 5833 5833 5833 5833 5833 5833 5832 5832 5832 5833 5833 5833 5832 5832 5832 5832 5831 5831 5831 5831 5832 5832 5833 5833 5834 5833 5833 5833 5833 5834 5834 5833 5833 5834 5834 5834 5834 5834 5835 5835 5836 5836 5836 5835 5835 5835 5835 5835 5835 5835
5794 5795 5798 5800 5802 5804 5806 5807 5808 5809 5810 5813 5816 5817 5818 5817 5816 5815 5814 5820 5820 5816 5817 5819 5818 5817 5819 5824 5825 5825 5825 5825 5826 5827 5828 5831 5832 5832 5832 5830 5829 5828 5829 5830 5830 5831 5831 5831 5831 5831 5831 5831 5831 5830 5830 5831 5831 5831 5830 5830 5830 5830 5830 5829 5829 5830 5830 5830 5831 5832 5831 5831 5831 5830 5831 5831 5832 5832 5831 5831 5832 5832 5833 5833 5833 5833 5833 5834 5835 5834 5834 5834 5834 5834 5834 5834 5833
5791 5792 5795 5797 5800 5802 5804 5805 5806 5808 5810 5812 5813 5814 5816 5814 5812 5812 5812 5817 5816 5813 5816 5815 5814 5815 5819 5823 5823 5823 5823 5823 5824 5825 5827 5829 5829 5829 5828 5827 5826 5826 5828 5829 5829 5829 5829 5828 5828 5828 5828 5828 5829 5829 5828 5828 5829 5829 5828 5828 5828 5827 5828 5828 5827 5828 5828 5828 5829 5829 5829 5829 5829 5829 5829 5830 5830 5829 5829 5829 5830 5831 5831 5831 5831 5831 5831 5832 5833 5833 5833 5833 5833 5833 5833 5833 5832
5787 5789 5791 5794 5798 5801 5802 5804 5805 5806 5808 5810 5810 5811 5812 5809 5808 5809 5808 5811 5812 5812 5814 5812 5813 5816 5818 5821 5820 5820 5821 5821 5822 5824 5825 5826 5826 5825 5825 5824 5824 5826 5827 5828 5827 5827 5826 5826 5826 5826 5826 5826 5827 5827 5826 5826 5826 5826 5826 5826 5825 5825 5826 5826 5826 5826 5827 5827 5827 5827 5827 5827 5827 5827 5827 5828 5827 5827 5827 5828 5828 5829 5830 5830 5830 5830 5830 5830 5831 5832 5832 5832 5832 5832 5832 5831 5831
5784 5786 5789 5792 5796 5799 5801 5801 5801 5802 5804 5806 5807 5807 5808 5807 5805 5806 5805 5806 5808 5810 5811 5810 5812 5815 5817 5818 5818 5818 5819 5819 5820 5822 5823 5823 5823 5822 5822 5821 5823 5825 5826 5825 5825 5824 5824 5824 5823 5823 5824 5824 5824 5824 5824 5824 5824 5824 5824 5824 5824 5824 5824 5825 5825 5825 5825 5825 5825 5825 5825 5825 5825 5826 5826 5826 5825 5825 5825 5826 5827 5827 5828 5828 5828 5829 5829 5829 5830 5830 5831 5831 5831 5831 5831 5830 5829
5781 5784 5787 5790 5794 5796 5798 5798 5795 5797 5801 5803 5804 5803 5805 5806 5804 5803 5804 5803 5804 5808 5809 5808 5811 5813 5816 5816 5816 5817 5817 5817 5819 5820 5820 5820 5819 5819 5819 5820 5821 5823 5823 5823 5823 5822 5822 5822 5821 5821 5821 5821 5821 5822 5822 5821 5822 5822 5822 5822 5822 5822 5823 5823 5823 5824 5824 5823 5823 5823 5823 5823 5823 5823 5824 5823 5823 5823 5823 5824 5825 5826 5826 5827 5827 5828 5828 5827 5827 5827 5828 5829 5829 5830 5830 5829 5829
5779 5781 5784 5789 5792 5793 5795 5795 5792 5795 5799 5800 5800 5800 5801 5803 5802 5803 5804 5800 5800 5807 5807 5806 5808 5811 5814 5815 5815 5815 5816 5816 5817 5818 5817 5816 5817 5817 5817 5818 5820 5820 5820 5821 5821 5820 5820 5820 5819 5818 5818 5819 5819 5819 5819 5819 5819 5820 5820 5820 5820 5821 5821 5821 5821 5822 5822 5821 5821 5821 5821 5821 5821 5821 5821 5821 5822 5822 5822 5823 5824 5824 5825 5826 5826 5826 5826 5825 5825 5824 5825 5826 5827 5827 5828 5828 5828
5777 5779 5783 5787 5789 5790 5792 5792 5790 5793 5796 5797 5797 5797 5797 5797 5799 5801 5800 5797 5799 5804 5805 5805 5807 5810 5812 5813 5813 5814 5814 5815 5816 5815 5814 5814 5815 5816 5816 5817 5818 5817 5817 5818 5818 5818 5818 5818 5817 5816 5816 5816 5817 5817 5817 5817 5817 5817 5818 5818 5818 5819 5819 5819 5819 5819 5819 5819 5818 5819 5819 5819 5819 5819 5819 5819 5819 5820 5821 5822 5823 5823 5824 5824 5824 5824 5824 5823 5823 5823 5823 5824 5824 5824 5825 5826 5826
5775 5777 5781 5784 5785 5787 5789 5787 5786 5787 5790 5792 5792 5793 5793 5793 5796 5797 5797 5797 5799 5801 5802 5804 5806 5808 5810 5811 5812 5812 5813 5814 5813 5812 5811 5812 5814 5815 5815 5816 5816 5815 5815 5816 5815 5815 5815 5815 5815 5814 5814 5814 5814 5815 5815 5815 5815 5815 5816 5816 5816 5816 5817 5817 5817 5817 5816 5816 5816 5817 5817 5817 5817 5817 5817 5817 5818 5819 5820 5821 5822 5822 5823 5823 5822 5822 5821 5821 5821 5821 5821 5822 5822 5823 5823 5824 5824
5772 5774 5777 5780 5782 5785 5786 5783 5782 5784 5785 5787 5788 5789 5790 5791 5793 5795 5796 5797 5797 5799 5800 5801 5803 5805 5806 5809 5810 5810 5811 5811 5809 5808 5809 5811 5813 5813 5813 5814 5813 5813 5813 5814 5813 5813 5812 5812 5812 5812 5811 5811 5812 5812 5813 5813 5813 5813 5813 5813 5814 5814 5814 5814 5814 5814 5814 5814 5815 5815 5815 5815 5816 5816 5816 5817 5817 5818 5819 5820 5821 5821 5822 5821 5820 5820 5819 5819 5819 5818 5819 5820 5820 5821 5821 5822 5822
5769 5772 5774 5778 5780 5781 5783 5781 5780 5781 5781 5783 5784 5786 5789 5790 5791 5793 5794 5794 5795 5797 5798 5798 5801 5803 5804 5805 5807 5808 5809 5807 5805 5805 5807 5809 5810 5811 5811 5811 5810 5810 5811 5811 5810 5810 5809 5809 5809 5809 5809 5809 5809 5810 5810 5810 5810 5810 5811 5811 5811 5811 5811 5812 5812 5812 5812 5813 5813 5814 5814 5814 5814 5815 5815 5816 5816 5817 5818 5818 5819 5819 5819 5819 5819 5819 5818 5818 5817 5817 5818 5818 5818 5819 5819 5819 5820
5766 5769 5772 5775 5777 5778 5779 5778 5778 5779 5779 5780 5782 5785 5789 5789 5789 5791 5792 5791 5792 5795 5796 5796 5799 5801 5802 5803 5805 5806 5805 5803 5802 5803 5805 5808 5808 5807 5808 5808 5807 5808 5809 5809 5808 5807 5807 5807 5807 5806 5806 5807 5807 5807 5807 5807 5808 5808 5808 5808 5808 5809 5809 5810 5810 5810 5811 5812 5812 5813 5813 5813 5813 5814 5814 5814 5815 5815 5816 5817 5817 5817 5817 5817 5817 5817 5817 5817 5816 5816 5817 5816 5816 5817 5817 5817 5817
5765 5767 5769 5772 5773 5775 5776 5776 5777 5778 5778 5777 5780 5784 5787 5787 5787 5791 5790 5788 5790 5793 5795 5795 5797 5799 5800 5802 5803 5803 5802 5801 5801 5803 5806 5808 5806 5805 5805 5806 5805 5806 5807 5807 5806 5806 5805 5805 5805 5804 5804 5805 5804 5804 5805 5805 5806 5806 5806 5806 5806 5807 5807 5808 5808 5809 5809 5810 5811 5811 5812 5811 5811 5812 5812 5813 5813 5814 5814 5815 5815 5815 5815 5816 5816 5815 5815 5815 5815 5815 5815 5814 5814 5814 5815 5815 5815
5763 5763 5765 5768 5770 5772 5774 5775 5776 5776 5774 5773 5776 5781 5785 5785 5786 5789 5788 5786 5788 5791 5793 5794 5796 5797 5799 5801 5801 5800 5800 5800 5801 5804 5806 5806 5805 5805 5804 5804 5804 5804 5804 5804 5804 5804 5803 5803 5802 5802 5802 5803 5802 5802 5802 5803 5804 5804 5804 5804 5805 5805 5806 5806 5806 5807 5808 5809 5809 5810 5810 5810 5810 5810 5811 5812 5812 5813 5813 5813 5813 5813 5814 5814 5814 5814 5814 5814 5813 5813 5812 5812 5812 5812 5812 5813 5813
5760 5760 5761 5764 5766 5768 5770 5772 5772 5772 5771 5771 5775 5779 5781 5782 5784 5786 5785 5785 5787 5788 5789 5791 5793 5795 5797 5798 5798 5798 5798 5798 5799 5803 5804 5803 5804 5804 5803 5802 5802 5802 5802 5801 5802 5802 5801 5801 5799 5799 5800 5800 5800 5800 5800 5801 5802 5802 5802 5803 5803 5804 5804 5805 5805 5806 5807 5807 5808 5808 5808 5808 5808 5809 5810 5811 5811 5811 5811 5811 5812 5812 5812 5812 5812 5812 5813 5812 5812 5811 5810 5810 5810 5810 5810 5811 5811
5757 5758 5760 5763 5764 5765 5766 5767 5769 5771 5770 5771 5774 5776 5777 5780 5782 5785 5785 5786 5785 5783 5785 5789 5791 5793 5794 5795 5795 5795 5796 5797 5798 5800 5802 5801 5801 5802 5802 5800 5800 5800 5799 5799 5799 5799 5799 5798 5796 5796 5797 5798 5798 5798 5799 5799 5800 5800 5800 5801 5801 5802 5803 5804 5804 5805 5805 5806 5806 5806 5806 5806 5807 5807 5808 5809 5809 5809 5809 5809 5810 5811 5811 5811 5811 5811 5811 5811 5810 5809 5809 5809 5809 5809 5809 5809 5810
5755 5756 5758 5760 5761 5762 5765 5766 5768 5769 5768 5770 5773 5772 5774 5778 5780 5783 5785 5786 5784 5781 5782 5786 5788 5791 5792 5793 5793 5793 5794 5795 5796 5797 5798 5799 5799 5799 5800 5799 5797 5797 5797 5797 5797 5797 5796 5794 5793 5794 5796 5797 5796 5796 5797 5797 5798 5798 5799 5799 5800 5800 5801 5803 5803 5804 5804 5804 5805 5805 5805 5805 5805 5805 5806 5806 5806 5806 5807 5807 5808 5809 5809 5810 5810 5810 5810 5809 5808 5808 5808 5808 5809 5808 5808 5809 5810
5753 5754 5755 5757 5758 5761 5764 5765 5767 5767 5767 5768 5770 5769 5772 5776 5779 5782 5784 5784 5784 5781 5780 5783 5785 5788 5791 5791 5791 5792 5792 5793 5793 5795 5795 5796 5796 5796 5798 5799 5796 5795 5795 5795 5795 5794 5793 5792 5791 5792 5794 5795 5794 5794 5794 5794 5795 5796 5797 5798 5798 5799 5800 5801 5802 5803 5803 5803 5803 5803 5803 5804 5804 5804 5804 5804 5804 5805 5806 5807 5808 5808 5809 5809 5808 5808 5808 5808 5807 5807 5807 5807 5808 5808 5808 5808 5809
5751 5752 5753 5755 5756 5759 5761 5763 5764 5765 5765 5766 5768 5767 5769 5774 5777 5779 5781 5782 5783 5781 5778 5780 5783 5785 5787 5789 5790 5790 5790 5791 5791 5792 5792 5794 5795 5796 5799 5799 5795 5794 5794 5793 5792 5790 5790 5789 5789 5791 5793 5793 5791 5792 5793 5793 5794 5795 5796 5797 5797 5798 5799 5800 5801 5802 5802 5802 5802 5802 5802 5803 5803 5803 5802 5802 5803 5805 5806 5807 5808 5808 5808 5808 5807 5806 5806 5806 5806 5806 5806 5807 5807 5807 5807 5807 5808
5748 5750 5752 5753 5754 5756 5758 5760 5761 5763 5763 5764 5765 5766 5766 5770 5774 5777 5778 5780 5780 5779 5777 5779 5781 5782 5783 5786 5788 5788 5788 5789 5789 5791 5792 5794 5796 5797 5798 5798 5794 5792 5792 5791 5788 5787 5785 5786 5787 5789 5790 5790 5790 5792 5793 5793 5793 5793 5794 5795 5796 5797 5798 5799 5800 5800 5801 5802 5801 5801 5802 5803 5803 5802 5802 5803 5803 5804 5805 5806 5806 5807 5807 5806 5806 5805 5806 5806 5806 5806 5806 5806 5806 5807 5807 5807 5807
5747 5748 5750 5751 5753 5753 5755 5758 5759 5760 5761 5761 5762 5764 5765 5767 5772 5775 5776 5777 5778 5777 5777 5778 5779 5780 5780 5782 5784 5786 5787 5787 5788 5790 5791 5792 5793 5793 5793 5794 5791 5789 5789 5788 5785 5784 5783 5783 5784 5786 5788 5788 5789 5792 5793 5792 5792 5792 5792 5793 5794 5795 5796 5797 5799 5799 5800 5801 5801 5801 5801 5802 5802 5802 5802 5803 5803 5803 5803 5804 5804 5805 5805 5805 5805 5805 5805 5805 5805 5806 5806 5806 5806 5807 5807 5807 5807
5745 5746 5748 5749 5750 5751 5752 5755 5757 5757 5758 5759 5760 5762 5763 5766 5770 5772 5772 5774 5776 5776 5776 5777 5777 5777 5778 5779 5780 5783 5786 5786 5787 5788 5789 5790 5790 5789 5788 5790 5789 5786 5787 5787 5784 5784 5785 5784 5783 5784 5787 5788 5788 5790 5790 5790 5790 5791 5791 5792 5793 5794 5795 5796 5798 5799 5799 5800 5800 5800 5800 5801 5801 5801 5802 5802 5802 5802 5802 5803 5803 5803 5803 5804 5804 5804 5804 5804 5804 5805 5805 5806 5806 5806 5806 5807 5806
5743 5744 5744 5745 5746 5748 5749 5752 5755 5756 5755 5756 5758 5759 5761 5764 5768 5770 5770 5771 5773 5774 5774 5773 5775 5775 5775 5777 5778 5780 5783 5785 5785 5785 5786 5787 5787 5787 5786 5787 5786 5784 5785 5785 5784 5786 5786 5785 5783 5783 5786 5788 5787 5787 5788 5789 5789 5790 5791 5791 5792 5793 5795 5796 5797 5798 5798 5799 5799 5799 5799 5800 5800 5801 5801 5801 5801 5801 5801 5802 5802 5802 5802 5803 5803 5803 5803 5803 5804 5804 5805 5805 5805 5805 5805 5806 5806
5740 5740 5740 5741 5742 5744 5746 5749 5753 5754 5753 5754 5757 5758 5759 5762 5766 5767 5769 5769 5769 5771 5770 5770 5772 5772 5772 5774 5776 5778 5780 5781 5782 5783 5784 5786 5786 5785 5784 5784 5784 5783 5784 5782 5782 5784 5784 5783 5782 5783 5785 5786 5786 5786 5787 5788 5789 5790 5790 5791 5791 5792 5793 5795 5796 5797 5797 5798 5798 5799 5799 5799 5800 5800 5800 5800 5800 5800 5800 5801 5801 5801 5802 5802 5802 5802 5803 5803 5803 5803 5804 5804 5804 5804 5804 5805 5805
5737 5737 5738 5739 5739 5741 5745 5748 5751 5753 5753 5753 5756 5758 5758 5760 5764 5766 5767 5767 5766 5767 5767 5769 5770 5771 5771 5772 5773 5775 5777 5778 5780 5782 5783 5784 5784 5784 5783 5782 5781 5781 5781 5779 5779 5781 5781 5780 5781 5783 5783 5784 5786 5786 5786 5788 5788 5789 5789 5789 5790 5791 5793 5794 5795 5796 5797 5797 5798 5798 5798 5798 5799 5799 5799 5799 5799 5799 5799 5800 5800 5800 5801 5801 5801 5802 5802 5802 5802 5802 5803 5803 5803 5803 5803 5804 5804
5734 5735 5736 5737 5739 5743 5745 5747 5750 5752 5753 5752 5754 5757 5758 5759 5762 5764 5765 5765 5764 5765 5767 5769 5770 5770 5769 5769 5771 5772 5774 5776 5779 5780 5780 5781 5782 5782 5781 5780 5779 5778 5777 5776 5778 5780 5780 5779 5780 5782 5783 5783 5785 5785 5784 5786 5787 5787 5788 5788 5789 5790 5792 5793 5794 5795 5795 5796 5797 5796 5796 5797 5797 5798 5798 5798 5798 5798 5798 5799 5799 5799 5800 5800 5801 5801 5801 5801 5801 5801 5802 5802 5803 5802 5803 5803 5804
5731 5732 5734 5737 5740 5742 5743 5746 5748 5749 5750 5751 5753 5755 5757 5758 5759 5762 5763 5764 5764 5765 5767 5768 5769 5769 5768 5766 5767 5769 5771 5773 5776 5778 5778 5779 5780 5780 5779 5776 5776 5776 5774 5774 5777 5780 5780 5779 5780 5781 5782 5783 5784 5783 5783 5785 5786 5786 5786 5787 5788 5789 5790 5791 5793 5793 5794 5795 5795 5795 5795 5795 5796 5796 5796 5797 5797 5797 5798 5798 5798 5799 5799 5799 5800 5800 5800 5801 5801 5801 5801 5801 5802 5802 5802 5802 5803
5729 5731 5733 5736 5739 5739 5740 5743 5744 5746 5748 5750 5751 5753 5754 5755 5756 5758 5760 5762 5763 5764 5766 5767 5768 5768 5767 5764 5763 5765 5767 5770 5774 5776 5776 5776 5777 5778 5776 5773 5773 5774 5771 5771 5775 5779 5779 5778 5778 5780 5781 5782 5782 5782 5783 5784 5784 5785 5785 5786 5787 5788 5789 5790 5791 5792 5793 5793 5794 5794 5795 5795 5795 5795 5795 5796 5796 5797 5797 5797 5797 5798 5798 5798 5799 5799 5799 5800 5800 5800 5801 5801 5801 5801 5801 5801 5802
5727 5729 5731 5734 5737 5738 5737 5739 5740 5742 5746 5748 5749 5751 5752 5752 5754 5756 5758 5759 5760 5761 5763 5764 5766 5767 5766 5763 5762 5762 5763 5766 5770 5771 5772 5774 5775 5775 5772 5770 5772 5772 5770 5770 5773 5775 5775 5775 5776 5778 5779 5780 5780 5780 5781 5782 5783 5784 5784 5785 5786 5787 5788 5789 5790 5791 5792 5793 5793 5794 5794 5794 5794 5795 5795 5795 5795 5796 5796 5796 5796 5797 5797 5798 5798 5798 5799 5799 5799 5800 5800 5800 5800 5800 5801 5801 5801
5725 5728 5729 5732 5735 5737 5737 5738 5739 5740 5742 5745 5746 5748 5750 5751 5752 5755 5758 5758 5759 5760 5760 5761 5763 5764 5763 5762 5761 5760 5761 5762 5764 5766 5769 5772 5773 5771 5769 5769 5771 5769 5767 5768 5769 5770 5771 5772 5775 5776 5777 5778 5778 5779 5779 5781 5782 5783 5784 5784 5785 5786 5787 5788 5789 5790 5791 5792 5792 5792 5793 5793 5793 5794 5794 5794 5795 5795 5795 5796 5796 5796 5796 5797 5797 5797 5798 5798 5798 5799 5799 5799 5799 5800 5800 5800 5800
5723 5726 5727 5729 5733 5735 5737 5737 5738 5738 5739 5740 5742 5745 5748 5748 5749 5753 5756 5756 5757 5758 5758 5758 5759 5760 5760 5759 5758 5758 5757 5758 5760 5763 5767 5770 5770 5767 5767 5769 5769 5765 5764 5765 5766 5767 5769 5772 5775 5775 5776 5776 5777 5778 5778 5779 5780 5781 5782 5783 5783 5784 5785 5787 5788 5789 5790 5790 5790 5791 5791 5792 5793 5793 5793 5793 5794 5794 5794 5795 5795 5796 5796 5796 5796 5796 5797 5797 5797 5798 5798 5798 5798 5799 5799 5799 5799
5722 5723 5724 5726 5729 5732 5735 5736 5736 5737 5737 5737 5738 5740 5743 5745 5747 5750 5752 5753 5754 5756 5757 5757 5757 5756 5755 5754 5755 5755 5754 5754 5758 5762 5765 5767 5767 5765 5765 5766 5764 5761 5762 5764 5766 5767 5770 5773 5775 5775 5775 5775 5776 5777 5777 5778 5779 5780 5781 5781 5782 5783 5784 5785 5786 5787 5788 5788 5789 5789 5790 5791 5791 5791 5791 5792 5792 5793 5794 5794 5794 5794 5795 5795 5795 5795 5796 5796 5796 5797 5797 5797 5797 5797 5798 5798 5798
5720 5720 5721 5724 5725 5728 5731 5733 5734 5734 5734 5735 5737 5738 5739 5742 5745 5747 5748 5750 5753 5755 5755 5755 5753 5752 5751 5751 5752 5752 5751 5751 5755 5760 5762 5763 5763 5762 5762 5761 5760 5760 5762 5765 5767 5767 5769 5771 5772 5772 5772 5773 5775 5776 5776 5777 5778 5779 5780 5780 5781 5782 5783 5784 5785 5786 5787 5787 5788 5788 5789 5789 5789 5789 5790 5790 5791 5792 5792 5793 5792 5792 5793 5793 5793 5794 5794 5794 5795 5795 5795 5796 5796 5796 5796 5796 5796
5717 5718 5720 5722 5724 5725 5727 5730 5732 5731 5731 5733 5736 5737 5737 5740 5743 5745 5746 5748 5750 5752 5753 5751 5749 5748 5748 5750 5750 5749 5748 5749 5753 5757 5759 5759 5759 5759 5758 5758 5758 5760 5762 5765 5766 5766 5767 5768 5769 5770 5770 5771 5773 5775 5775 5776 5776 5777 5778 5779 5781 5782 5782 5783 5783 5785 5785 5786 5786 5787 5787 5788 5788 5788 5789 5789 5790 5790 5791 5791 5791 5790 5791 5791 5791 5791 5792 5792 5793 5793 5794 5794 5794 5794 5794 5794 5794
5715 5716 5719 5721 5723 5724 5725 5728 5729 5728 5729 5732 5734 5736 5736 5738 5741 5743 5743 5744 5747 5749 5749 5748 5745 5744 5746 5748 5747 5745 5746 5749 5752 5754 5756 5756 5756 5757 5756 5756 5757 5759 5762 5764 5764 5764 5766 5767 5767 5768 5769 5770 5772 5774 5775 5775 5776 5777 5778 5779 5781 5782 5782 5782 5783 5784 5784 5785 5785 5785 5786 5786 5786 5787 5787 5788 5788 5788 5788 5789 5789 5788 5788 5789 5789 5789 5789 5790 5790 5791 5791 5792 5792 5792 5792 5792 5792
5713 5715 5717 5718 5720 5722 5723 5725 5725 5726 5728 5730 5733 5735 5735 5736 5739 5740 5740 5741 5744 5745 5745 5744 5741 5740 5743 5746 5744 5743 5745 5748 5750 5751 5753 5752 5753 5753 5753 5754 5756 5758 5760 5762 5763 5764 5766 5767 5767 5767 5768 5770 5772 5773 5774 5775 5777 5777 5778 5779 5780 5781 5781 5782 5782 5782 5782 5783 5783 5784 5784 5784 5785 5785 5786 5786 5786 5786 5786 5786 5786 5786 5786 5786 5787 5787 5787 5787 5787 5788 5789 5789 5790 5790 5791 5791 5790
5712 5713 5715 5716 5718 5719 5721 5723 5723 5725 5726 5729 5732 5734 5734 5735 5735 5736 5737 5739 5741 5741 5741 5740 5737 5738 5742 5743 5743 5744 5745 5747 5748 5749 5750 5750 5751 5751 5752 5754 5756 5757 5759 5760 5762 5763 5764 5766 5766 5766 5768 5769 5771 5772 5774 5775 5775 5776 5777 5778 5779 5779 5780 5780 5780 5780 5780 5780 5781 5782 5782 5783 5783 5783 5784 5784 5784 5783 5783 5783 5784 5784 5784 5784 5784 5784 5784 5784 5784 5785 5786 5787 5787 5788 5788 5789 5789
5711 5712 5714 5715 5716 5718 5719 5721 5722 5723 5724 5728 5731 5731 5731 5732 5731 5732 5735 5737 5738 5738 5737 5737 5736 5738 5740 5741 5741 5743 5744 5745 5746 5747 5748 5749 5750 5750 5751 5753 5755 5757 5758 5759 5760 5761 5762 5763 5764 5765 5767 5768 5770 5771 5772 5773 5773 5774 5775 5776 5777 5778 5778 5778 5778 5777 5777 5778 5779 5780 5780 5781 5781 5782 5782 5782 5782 5781 5781 5781 5781 5781 5782 5782 5782 5782 5782 5782 5782 5783 5783 5784 5785 5785 5786 5786 5787
5709 5710 5711 5712 5714 5716 5718 5719 5720 5721 5723 5725 5727 5727 5727 5728 5728 5729 5733 5735 5735 5735 5734 5734 5735 5737 5738 5739 5739 5741 5742 5743 5744 5745 5746 5747 5748 5749 5750 5752 5754 5756 5757 5757 5758 5758 5759 5761 5763 5764 5766 5767 5769 5770 5771 5772 5772 5772 5773 5774 5775 5776 5776 5776 5775 5775 5775 5776 5777 5778 5778 5779 5779 5779 5780 5780 5780 5779 5779 5779 5779 5779 5779 5779 5780 5780 5780 5780 5780 5781 5781 5782 5783 5783 5783 5784 5784
5706 5707 5709 5711 5713 5715 5716 5717 5718 5719 5720 5722 5724 5724 5724 5725 5725 5726 5730 5732 5731 5732 5732 5733 5734 5735 5736 5737 5738 5740 5741 5742 5743 5744 5745 5745 5746 5748 5749 5750 5751 5753 5755 5756 5757 5757 5758 5759 5761 5763 5765 5766 5768 5769 5770 5771 5771 5771 5771 5772 5773 5773 5774 5774 5773 5773 5773 5773 5774 5775 5775 5776 5777 5777 5778 5778 5778 5777 5777 5777 5777 5777 5777 5777 5777 5778 5778 5778 5779 5779 5779 5780 5780 5781 5781 5781 5781
5705 5707 5708 5710 5711 5712 5713 5714 5716 5717 5718 5720 5722 5722 5722 5723 5723 5723 5727 5729 5729 5730 5731 5731 5731 5732 5733 5734 5736 5738 5740 5741 5742 5742 5743 5743 5745 5746 5747 5748 5749 5751 5753 5755 5756 5756 5757 5759 5760 5762 5764 5765 5767 5768 5768 5768 5769 5769 5769 5770 5770 5770 5771 5771 5771 5771 5770 5771 5772 5772 5773 5773 5774 5775 5775 5775 5775 5775 5775 5775 5775 5775 5775 5775 5775 5776 5776 5777 5777 5777 5777 5778 5778 5778 5778 5778 5778
5704 5705 5707 5708 5709 5709 5710 5712 5713 5714 5716 5718 5719 5719 5720 5721 5721 5721 5725 5727 5727 5729 5730 5730 5729 5729 5730 5731 5733 5735 5737 5738 5739 5740 5740 5741 5742 5743 5744 5746 5748 5750 5751 5753 5754 5755 5756 5758 5760 5761 5762 5763 5764 5764 5765 5765 5766 5767 5768 5768 5768 5768 5768 5768 5768 5768 5768 5768 5769 5770 5770 5770 5771 5772 5773 5773 5773 5774 5774 5774 5773 5773 5773 5773 5773 5774 5774 5775 5775 5776 5776 5776 5776 5776 5776 5776 5776
5703 5704 5704 5705 5706 5707 5707 5709 5710 5712 5713 5715 5715 5715 5717 5719 5719 5720 5723 5725 5726 5727 5727 5727 5727 5728 5729 5729 5730 5731 5733 5735 5737 5737 5737 5737 5738 5740 5742 5744 5746 5748 5750 5751 5752 5753 5754 5756 5757 5758 5758 5758 5759 5760 5761 5762 5763 5765 5766 5766 5765 5765 5765 5764 5764 5764 5764 5765 5766 5767 5768 5768 5768 5769 5770 5771 5771 5771 5772 5772 5772 5772 5772 5772 5772 5772 5772 5773 5773 5774 5774 5774 5774 5774 5774 5774 5773
5700 5702 5703 5703 5704 5704 5705 5707 5709 5710 5711 5711 5712 5712 5713 5715 5716 5717 5720 5723 5723 5723 5724 5725 5725 5726 5727 5728 5728 5729 5730 5733 5734 5735 5734 5735 5736 5738 5740 5742 5744 5746 5748 5749 5750 5750 5751 5753 5754 5754 5754 5754 5755 5756 5757 5758 5760 5760 5761 5761 5761 5760 5760 5760 5760 5760 5760 5761 5762 5764 5765 5765 5766 5766 5767 5768 5768 5769 5769 5770 5770 5770 5770 5770 5770 5770 5770 5771 5771 5771 5772 5772 5772 5772 5772 5772 5771
5695 5697 5699 5700 5701 5701 5702 5704 5706 5708 5708 5708 5710 5711 5710 5711 5714 5714 5716 5719 5720 5720 5721 5722 5723 5723 5724 5725 5725 5726 5727 5730 5731 5732 5732 5733 5735 5737 5738 5741 5743 5743 5744 5745 5746 5748 5749 5750 5751 5750 5750 5751 5752 5753 5754 5756 5757 5757 5757 5757 5756 5755 5755 5755 5755 5756 5757 5757 5758 5760 5762 5763 5764 5764 5764 5765 5766 5766 5767 5768 5768 5768 5768 5768 5768 5768 5768 5768 5768 5769 5769 5769 5770 5770 5770 5770 5769